When you browse on this site, cookies collect data to enhance your experience and personalize the content and advertising you see.
Visit our Privacy Policy to learn more. By continuing to use the site, you agree to this use of cookies and data.
  • In Hungary
  • List of Countries
  • For 7 days
  • Water Temperature
  • Weather Map
  • News
  • Weather Widgets
  • user-avatar
    Login

    Hourly Weather Bort-les-Orgues

    Today, 15 November, Friday

    Time Temperature Precipitation Wind Pressure Humidity
    00:00 +2°C° 0.1 mm 1 mps 695 mmHg 98%
    01:00 +2°C° 0 mm 1 mps 695 mmHg 98%
    02:00 +2°C° 0 mm 1 mps 695 mmHg 98%
    03:00 +2°C° 0 mm 1 mps 695 mmHg 97%
    04:00 +2°C° 0.2 mm 1 mps 695 mmHg 98%
    05:00 +2°C° 0.2 mm 1 mps 695 mmHg 98%
    06:00 +2°C° 0.2 mm 1 mps 696 mmHg 98%
    07:00 +2°C° 0.1 mm 1 mps 696 mmHg 97%
    08:00 +3°C° 0.1 mm 1 mps 697 mmHg 96%
    09:00 +3°C° 0.1 mm 1 mps 697 mmHg 94%
    10:00 +4°C° 0.1 mm 1 mps 697 mmHg 92%
    11:00 +4°C° 0.1 mm 1 mps 697 mmHg 89%
    12:00 +4°C° 0.1 mm 2 mps 697 mmHg 86%
    13:00 +5°C° 0.1 mm 1 mps 697 mmHg 87%
    14:00 +5°C° 0.1 mm 1 mps 697 mmHg 87%
    15:00 +4°C° 0.1 mm 1 mps 697 mmHg 88%
    16:00 +3°C° 0 mm 1 mps 697 mmHg 91%
    17:00 +1°C° 0 mm 0 mps 698 mmHg 93%
    18:00 0°C° 0 mm 0 mps 698 mmHg 96%
    19:00 -1°C° 0 mm 0 mps 698 mmHg 95%
    20:00 -1°C° 0 mm 0 mps 699 mmHg 94%
    21:00 -1°C° 0 mm 0 mps 699 mmHg 93%
    22:00 -1°C° 0 mm 0 mps 699 mmHg 93%
    23:00 0°C° 0 mm 1 mps 700 mmHg 94%

    Tomorrow, 16 November, Saturday

    Time Temperature Precipitation Wind Pressure Humidity
    00:00 0°C° 0 mm 1 mps 700 mmHg 94%
    01:00 0°C° 0 mm 1 mps 700 mmHg 94%
    02:00 +1°C° 0 mm 1 mps 701 mmHg 95%
    03:00 +1°C° 0 mm 1 mps 701 mmHg 95%
    04:00 +1°C° 0 mm 1 mps 701 mmHg 96%
    05:00 -1°C° 0 mm 2 mps 701 mmHg 96%
    06:00 -1°C° 0 mm 2 mps 701 mmHg 97%
    07:00 -1°C° 0 mm 2 mps 702 mmHg 94%
    08:00 0°C° 0 mm 3 mps 702 mmHg 92%
    09:00 0°C° 0 mm 3 mps 702 mmHg 90%
    10:00 +1°C° 0.1 mm 3 mps 702 mmHg 89%
    11:00 +1°C° 0.1 mm 4 mps 702 mmHg 88%
    12:00 +1°C° 0.1 mm 4 mps 702 mmHg 87%
    13:00 +1°C° 0.2 mm 4 mps 702 mmHg 88%
    14:00 +2°C° 0.2 mm 3 mps 701 mmHg 88%
    15:00 +2°C° 0.2 mm 3 mps 701 mmHg 89%
    16:00 +2°C° 0.8 mm 3 mps 701 mmHg 91%
    17:00 +1°C° 0.8 mm 3 mps 701 mmHg 94%
    18:00 +2°C° 0.8 mm 2 mps 702 mmHg 97%
    19:00 +2°C° 0.5 mm 2 mps 702 mmHg 97%
    20:00 +2°C° 0.5 mm 2 mps 702 mmHg 98%
    21:00 +2°C° 0.5 mm 2 mps 702 mmHg 98%
    22:00 +3°C° 1.4 mm 1 mps 702 mmHg 98%
    23:00 +3°C° 1.4 mm 1 mps 701 mmHg 98%

    Day after tomorrow, 17 November, Sunday

    Time Temperature Precipitation Wind Pressure Humidity
    00:00 +2°C° 1.4 mm 0 mps 701 mmHg 99%
    01:00 +2°C° 0.9 mm 0 mps 701 mmHg 99%
    02:00 +2°C° 0.9 mm 0 mps 701 mmHg 99%
    03:00 +2°C° 0.9 mm 0 mps 701 mmHg 99%
    04:00 +1°C° 0 mm 0 mps 701 mmHg 98%
    05:00 +2°C° 0 mm 1 mps 700 mmHg 98%
    06:00 +1°C° 0 mm 1 mps 700 mmHg 98%
    07:00 +1°C° 0 mm 0 mps 701 mmHg 97%
    08:00 +2°C° 0 mm 0 mps 701 mmHg 96%
    09:00 +2°C° 0 mm 0 mps 701 mmHg 95%
    10:00 +3°C° 0 mm 0 mps 701 mmHg 94%
    11:00 +4°C° 0 mm 1 mps 701 mmHg 93%
    12:00 +5°C° 0 mm 1 mps 701 mmHg 92%
    13:00 +5°C° 0 mm 1 mps 701 mmHg 93%
    14:00 +5°C° 0 mm 1 mps 701 mmHg 93%
    15:00 +3°C° 0 mm 0 mps 701 mmHg 93%
    16:00 +2°C° 0 mm 0 mps 701 mmHg 94%
    17:00 +1°C° 0 mm 0 mps 702 mmHg 95%
    18:00 -1°C° 0 mm 0 mps 702 mmHg 96%
    19:00 0°C° 0 mm 1 mps 702 mmHg 96%
    20:00 0°C° 0 mm 1 mps 702 mmHg 96%
    21:00 -1°C° 0 mm 1 mps 703 mmHg 95%
    22:00 -1°C° 0 mm 1 mps 703 mmHg 95%
    23:00 -1°C° 0 mm 1 mps 703 mmHg 95%

    18 November, Monday

    Time Temperature Precipitation Wind Pressure Humidity
    00:00 -1°C° 0 mm 1 mps 703 mmHg 94%
    01:00 -1°C° 0 mm 1 mps 703 mmHg 94%
    02:00 -1°C° 0 mm 1 mps 703 mmHg 93%
    03:00 -1°C° 0 mm 1 mps 703 mmHg 93%
    04:00 -2°C° 0 mm 0 mps 704 mmHg 92%
    05:00 -2°C° 0 mm 0 mps 704 mmHg 90%
    06:00 -2°C° 0 mm 0 mps 704 mmHg 89%
    07:00 0°C° 0 mm 0 mps 705 mmHg 88%
    08:00 +1°C° 0 mm 0 mps 706 mmHg 86%
    09:00 +2°C° 0 mm 0 mps 706 mmHg 85%
    10:00 +3°C° 0 mm 0 mps 706 mmHg 83%
    11:00 +4°C° 0 mm 0 mps 706 mmHg 81%
    12:00 +5°C° 0 mm 0 mps 707 mmHg 79%
    13:00 +5°C° 0 mm 0 mps 706 mmHg 82%
    14:00 +5°C° 0 mm 0 mps 706 mmHg 84%
    15:00 +5°C° 0 mm 1 mps 706 mmHg 87%
    16:00 +3°C° 0 mm 0 mps 706 mmHg 90%
    17:00 +1°C° 0 mm 0 mps 707 mmHg 92%
    18:00 -1°C° 0 mm 0 mps 707 mmHg 95%
    19:00 -1°C° 0 mm 0 mps 707 mmHg 95%
    20:00 0°C° 0 mm 1 mps 707 mmHg 96%
    21:00 0°C° 0 mm 1 mps 707 mmHg 97%
    22:00 0°C° 0 mm 1 mps 707 mmHg 97%
    23:00 +1°C° 0 mm 1 mps 707 mmHg 97%

    19 November, Tuesday

    Time Temperature Precipitation Wind Pressure Humidity
    00:00 +1°C° 0 mm 1 mps 708 mmHg 98%
    01:00 +1°C° 0 mm 1 mps 707 mmHg 98%
    02:00 0°C° 0 mm 1 mps 707 mmHg 97%
    03:00 0°C° 0 mm 1 mps 707 mmHg 97%
    04:00 0°C° 0 mm 1 mps 707 mmHg 97%
    05:00 0°C° 0 mm 1 mps 707 mmHg 96%
    06:00 0°C° 0 mm 1 mps 707 mmHg 96%
    07:00 +1°C° 0 mm 1 mps 707 mmHg 93%
    08:00 +2°C° 0 mm 1 mps 707 mmHg 90%
    09:00 +3°C° 0 mm 1 mps 707 mmHg 87%
    10:00 +4°C° 0 mm 1 mps 707 mmHg 85%
    11:00 +5°C° 0 mm 1 mps 706 mmHg 82%
    12:00 +6°C° 0 mm 1 mps 706 mmHg 79%
    13:00 +6°C° 0 mm 1 mps 705 mmHg 81%
    14:00 +6°C° 0 mm 1 mps 705 mmHg 83%
    15:00 +6°C° 0 mm 1 mps 705 mmHg 85%
    16:00 +4°C° 0 mm 1 mps 705 mmHg 87%
    17:00 +2°C° 0 mm 1 mps 704 mmHg 89%
    18:00 +1°C° 0 mm 1 mps 704 mmHg 91%
    19:00 +1°C° 0 mm 1 mps 704 mmHg 89%
    20:00 +1°C° 0 mm 1 mps 705 mmHg 87%
    21:00 +1°C° 0 mm 1 mps 705 mmHg 85%
    22:00 +1°C° 0 mm 1 mps 705 mmHg 85%
    23:00 +1°C° 0 mm 1 mps 704 mmHg 85%

    20 November, Wednesday

    Time Temperature Precipitation Wind Pressure Humidity
    00:00 +1°C° 0 mm 1 mps 704 mmHg 84%
    01:00 +1°C° 0 mm 1 mps 704 mmHg 84%
    02:00 +2°C° 0 mm 1 mps 704 mmHg 83%
    03:00 +2°C° 0 mm 1 mps 704 mmHg 83%
    04:00 +3°C° 0 mm 1 mps 703 mmHg 84%
    05:00 +2°C° 0 mm 2 mps 703 mmHg 84%
    06:00 +3°C° 0 mm 2 mps 703 mmHg 85%
    07:00 +3°C° 0 mm 2 mps 703 mmHg 86%
    08:00 +4°C° 0 mm 2 mps 703 mmHg 87%
    09:00 +5°C° 0 mm 2 mps 703 mmHg 88%
    10:00 +6°C° 0 mm 2 mps 703 mmHg 86%
    11:00 +7°C° 0 mm 2 mps 702 mmHg 85%
    12:00 +9°C° 0 mm 2 mps 702 mmHg 84%
    13:00 +8°C° 0 mm 2 mps 702 mmHg 86%
    14:00 +8°C° 0 mm 2 mps 701 mmHg 88%
    15:00 +8°C° 0 mm 2 mps 701 mmHg 91%
    16:00 +6°C° 0 mm 2 mps 701 mmHg 92%
    17:00 +5°C° 0 mm 2 mps 700 mmHg 94%
    18:00 +4°C° 0 mm 2 mps 700 mmHg 96%
    19:00 +4°C° 0 mm 2 mps 700 mmHg 95%
    20:00 +4°C° 0 mm 2 mps 700 mmHg 94%
    21:00 +4°C° 0 mm 2 mps 700 mmHg 93%
    22:00 +4°C° 0 mm 2 mps 700 mmHg 93%
    23:00 +4°C° 0 mm 2 mps 700 mmHg 93%
    Show more